レモン-パンスターズ彗星

P/2024 C5 ( Lemmon-PanSTARRS )

English version
Home page
Updated on February 25, 2024

---------------------------------------------------------------------

・ プロフィール

検出日 2024年2月12日
検出光度 20.2等
検出者 E. Schwab (Egelsbach, Germany)

・ 軌道要素

                    Epoch = 2023 June 25.0 TT
     T = 2023 July  8.64003 TT        Peri. = 356.63762
     e = 0.3434109                    Node  =  93.55606 2000.0
     q = 3.0714282 AU                 Incl. =   6.08283
       a =  4.6778545 AU   n = 0.09741683   P =  10.12 years

・ 光度変化

        m1 = 13.5 + 5 logΔ + 10.0 log r

---------------------------------------------------------------------

軌道要素は、CBET 5356に掲載されたものです。
光度グラフはComet for Windowsで作成したものです。

---------------------------------------------------------------------

Copyright(C) Seiichi Yoshida (comet@aerith.net). All rights reserved.